CCA2892 ZLLL-ZBTJ

Flight info

Callsign CCA2892
Flight time 1h 35m
Altitude 33100
Route ADPUX W211 ZWX W219 YHD B215 GODON W87 PARTU G212 TONOV V152 GUVRI W85 OMDEK
Aircraft B789/H-SDE3FGHIRWY/LB1

Departure

Time 2026-04-18 02:18
Airport Lanzhou Zhongchuan International Airport (ZLLL)

Arrival

Time 2026-04-18 03:54
Airport Tianjin Binhai International Airport (ZBTJ)
Time Latitude Longitude Altitude Speed Heading
2026-04-18 02:03 36.52067 103.64014 6407 ft 0 kts 270°
2026-04-18 02:08 36.52067 103.64021 6407 ft 2 kts 270°
2026-04-18 02:08 36.52067 103.64041 6407 ft 2 kts 268°
2026-04-18 02:08 36.52067 103.64061 6407 ft 2 kts 266°
2026-04-18 02:09 36.52069 103.64081 6407 ft 2 kts 262°
2026-04-18 02:09 36.52071 103.64100 6407 ft 2 kts 257°
2026-04-18 02:09 36.52076 103.64119 6407 ft 2 kts 249°
2026-04-18 02:09 36.52082 103.64136 6407 ft 2 kts 235°
2026-04-18 02:10 36.52091 103.64149 6407 ft 2 kts 214°
2026-04-18 02:10 36.52100 103.64155 6407 ft 2 kts 184°
2026-04-18 02:10 36.52114 103.64155 6407 ft 2 kts 177°
2026-04-18 02:10 36.52129 103.64154 6407 ft 2 kts 177°
2026-04-18 02:11 36.52131 103.64154 6407 ft 0 kts 177°
2026-04-18 02:12 36.52130 103.64154 6407 ft 0 kts 177°
2026-04-18 02:13 36.52127 103.64154 6407 ft 2 kts 177°
2026-04-18 02:13 36.52090 103.64156 6407 ft 10 kts 177°
2026-04-18 02:14 36.51995 103.64161 6407 ft 18 kts 177°
2026-04-18 02:14 36.51859 103.64168 6407 ft 16 kts 178°
2026-04-18 02:14 36.51752 103.64213 6407 ft 15 kts 153°
2026-04-18 02:14 36.51671 103.64259 6407 ft 15 kts 164°
2026-04-18 02:15 36.51540 103.64278 6407 ft 23 kts 176°
2026-04-18 02:15 36.51360 103.64290 6407 ft 26 kts 177°
2026-04-18 02:15 36.51177 103.64302 6407 ft 27 kts 177°
2026-04-18 02:15 36.50989 103.64315 6407 ft 27 kts 176°
2026-04-18 02:16 36.50807 103.64328 6407 ft 26 kts 178°
2026-04-18 02:16 36.50630 103.64336 6407 ft 25 kts 177°
2026-04-18 02:16 36.50469 103.64346 6407 ft 14 kts 177°
2026-04-18 02:16 36.50394 103.64353 6407 ft 10 kts 166°
2026-04-18 02:17 36.50368 103.64430 6407 ft 13 kts 89°
2026-04-18 02:17 36.50376 103.64560 6407 ft 16 kts 85°
2026-04-18 02:17 36.50398 103.64633 6407 ft 8 kts 26°
2026-04-18 02:17 36.50452 103.64641 6407 ft 9 kts 359°
2026-04-18 02:18 36.50670 103.64628 6407 ft 72 kts 357°
2026-04-18 02:18 36.51463 103.64579 6407 ft 152 kts 356°
2026-04-18 02:18 36.52687 103.64488 6769 ft 186 kts 356°
2026-04-18 02:18 36.53982 103.64395 7787 ft 182 kts
2026-04-18 02:19 36.55236 103.64348 8803 ft 182 kts 358°
2026-04-18 02:19 36.56540 103.64305 9374 ft 194 kts 359°
2026-04-18 02:19 36.57875 103.64835 9688 ft 214 kts 28°
2026-04-18 02:19 36.59128 103.65931 9999 ft 229 kts 32°
2026-04-18 02:20 36.60507 103.67124 10237 ft 252 kts 32°
2026-04-18 02:20 36.61995 103.68407 10707 ft 268 kts 32°
2026-04-18 02:20 36.63533 103.69734 11393 ft 276 kts 31°
2026-04-18 02:20 36.65144 103.71124 12182 ft 281 kts 31°
2026-04-18 02:21 36.66745 103.72489 12961 ft 285 kts 28°
2026-04-18 02:21 36.68511 103.73707 13472 ft 298 kts 23°
2026-04-18 02:21 36.70416 103.74913 13931 ft 316 kts 22°
2026-04-18 02:21 36.72435 103.76181 14387 ft 333 kts 22°
2026-04-18 02:22 36.74563 103.77521 14834 ft 352 kts 22°
2026-04-18 02:22 36.76799 103.78939 15321 ft 369 kts 22°
2026-04-18 02:22 36.79121 103.80418 15966 ft 380 kts 22°
2026-04-18 02:22 36.81496 103.81937 16725 ft 387 kts 22°
2026-04-18 02:23 36.83908 103.83483 17518 ft 393 kts 22°
2026-04-18 02:23 36.86329 103.85126 18301 ft 402 kts 27°
2026-04-18 02:23 36.88513 103.87384 19089 ft 414 kts 41°
2026-04-18 02:23 36.90274 103.90290 19901 ft 426 kts 54°
2026-04-18 02:24 36.91512 103.93704 20652 ft 439 kts 67°
2026-04-18 02:24 36.92156 103.97477 21348 ft 451 kts 79°
2026-04-18 02:24 36.92434 104.01410 22007 ft 458 kts 82°
2026-04-18 02:24 36.92739 104.05394 22602 ft 464 kts 79°
2026-04-18 02:25 36.93168 104.09412 23201 ft 469 kts 77°
2026-04-18 02:25 36.93705 104.13454 23825 ft 473 kts 75°
2026-04-18 02:25 36.94305 104.17513 24463 ft 477 kts 74°
2026-04-18 02:25 36.95211 104.21485 25083 ft 473 kts 63°
2026-04-18 02:26 36.96722 104.25099 25746 ft 466 kts 50°
2026-04-18 02:26 36.98627 104.28345 26415 ft 463 kts 44°
2026-04-18 02:26 37.00689 104.31448 26953 ft 466 kts 42°
2026-04-18 02:26 37.02828 104.34516 27439 ft 470 kts 41°
2026-04-18 02:27 37.05002 104.37593 27963 ft 474 kts 41°
2026-04-18 02:27 37.07197 104.40699 28514 ft 477 kts 41°
2026-04-18 02:27 37.09395 104.43824 29057 ft 480 kts 41°
2026-04-18 02:27 37.11603 104.46982 29591 ft 483 kts 41°
2026-04-18 02:28 37.13816 104.50155 30082 ft 486 kts 41°
2026-04-18 02:28 37.16052 104.53363 30534 ft 490 kts 41°
2026-04-18 02:28 37.18300 104.56587 30930 ft 494 kts 41°
2026-04-18 02:28 37.20577 104.59851 31291 ft 499 kts 42°
2026-04-18 02:29 37.22871 104.63137 31684 ft 503 kts 42°
2026-04-18 02:29 37.25183 104.66449 32105 ft 506 kts 42°
2026-04-18 02:29 37.27504 104.69778 32583 ft 507 kts 42°
2026-04-18 02:29 37.29805 104.73078 32877 ft 512 kts 43°
2026-04-18 02:30 37.32151 104.76442 33043 ft 508 kts 43°
2026-04-18 02:30 37.36810 104.83096 33082 ft 510 kts 43°
2026-04-18 02:31 37.41503 104.89789 33094 ft 510 kts 43°
2026-04-18 02:31 37.46180 104.96480 33099 ft 507 kts 43°
2026-04-18 02:32 37.50845 105.03161 33088 ft 509 kts 43°
2026-04-18 02:32 37.55520 105.09871 33100 ft 510 kts 43°
2026-04-18 02:33 37.60031 105.16799 33094 ft 513 kts 47°
2026-04-18 02:33 37.64353 105.23941 33089 ft 511 kts 47°
2026-04-18 02:34 37.68681 105.31093 33102 ft 513 kts 47°
2026-04-18 02:34 37.72283 105.37034 33092 ft 513 kts 47°
2026-04-18 02:35 37.76617 105.44185 33092 ft 512 kts 47°
2026-04-18 02:35 37.80951 105.51350 33101 ft 513 kts 47°
2026-04-18 02:36 37.85285 105.58508 33088 ft 512 kts 47°
2026-04-18 02:36 37.89617 105.65662 33097 ft 512 kts 47°
2026-04-18 02:37 37.93950 105.72831 33097 ft 512 kts 47°
2026-04-18 02:37 37.98278 105.80007 33088 ft 512 kts 48°
2026-04-18 02:38 38.02599 105.87189 33101 ft 512 kts 48°
2026-04-18 02:38 38.06915 105.94379 33092 ft 512 kts 48°
2026-04-18 02:39 38.11227 106.01578 33092 ft 512 kts 48°
2026-04-18 02:39 38.15537 106.08788 33101 ft 512 kts 48°
2026-04-18 02:40 38.19812 106.15957 33088 ft 512 kts 48°
2026-04-18 02:40 38.24110 106.23179 33097 ft 512 kts 48°
2026-04-18 02:41 38.28409 106.30419 33097 ft 512 kts 48°
2026-04-18 02:41 38.32399 106.37959 33060 ft 520 kts 60°
2026-04-18 02:41 38.33642 106.42304 33077 ft 526 kts 72°
2026-04-18 02:42 38.34232 106.46929 33090 ft 532 kts 84°
2026-04-18 02:42 38.33509 106.56283 33126 ft 532 kts 99°
2026-04-18 02:43 38.32042 106.65525 33098 ft 532 kts 98°
2026-04-18 02:43 38.30872 106.74811 33085 ft 531 kts 96°
2026-04-18 02:44 38.29880 106.84125 33096 ft 531 kts 95°
2026-04-18 02:44 38.28916 106.93438 33092 ft 531 kts 95°
2026-04-18 02:45 38.27937 107.02749 33085 ft 531 kts 95°
2026-04-18 02:45 38.26945 107.12051 33097 ft 531 kts 95°
2026-04-18 02:46 38.25949 107.21362 33085 ft 530 kts 95°
2026-04-18 02:46 38.24952 107.30600 33086 ft 530 kts 96°
2026-04-18 02:47 38.23937 107.39889 33092 ft 530 kts 96°
2026-04-18 02:47 38.22911 107.49166 33078 ft 530 kts 96°
2026-04-18 02:48 38.21878 107.58459 33090 ft 530 kts 96°
2026-04-18 02:48 38.20846 107.67735 33083 ft 530 kts 96°
2026-04-18 02:49 38.19847 107.77007 33078 ft 529 kts 95°
2026-04-18 02:49 38.18943 107.86297 33087 ft 529 kts 95°
2026-04-18 02:50 38.18054 107.95574 33073 ft 529 kts 95°
2026-04-18 02:50 38.17156 108.04859 33081 ft 529 kts 95°
2026-04-18 02:51 38.16250 108.14122 33076 ft 528 kts 95°
2026-04-18 02:51 38.15334 108.23388 33069 ft 529 kts 95°
2026-04-18 02:52 38.14455 108.32661 33080 ft 528 kts 94°
2026-04-18 02:52 38.13678 108.41924 33063 ft 527 kts 94°
2026-04-18 02:53 38.12917 108.51180 33069 ft 527 kts 94°
2026-04-18 02:53 38.12142 108.60441 33065 ft 527 kts 94°
2026-04-18 02:54 38.11356 108.69696 33059 ft 527 kts 94°
2026-04-18 02:54 38.10565 108.78943 33070 ft 527 kts 94°
2026-04-18 02:55 38.09768 108.88188 33056 ft 527 kts 94°
2026-04-18 02:55 38.08964 108.97426 33063 ft 527 kts 94°
2026-04-18 02:56 38.08151 109.06667 33062 ft 527 kts 94°
2026-04-18 02:56 38.06917 109.20522 33061 ft 527 kts 94°
2026-04-18 02:57 38.06089 109.29753 33062 ft 527 kts 94°
2026-04-18 02:57 38.05257 109.38978 33052 ft 526 kts 94°
2026-04-18 02:58 38.04419 109.48149 33065 ft 527 kts 95°
2026-04-18 02:58 38.03564 109.57369 33055 ft 527 kts 95°
2026-04-18 02:59 38.02702 109.66606 33058 ft 527 kts 95°
2026-04-18 02:59 38.01840 109.75828 33065 ft 527 kts 95°
2026-04-18 03:00 38.00972 109.85048 33053 ft 527 kts 95°
2026-04-18 03:00 38.00094 109.94274 33064 ft 527 kts 95°
2026-04-18 03:01 37.99202 110.03494 33060 ft 527 kts 95°
2026-04-18 03:01 37.98304 110.12710 33058 ft 527 kts 95°
2026-04-18 03:02 37.97401 110.21933 33069 ft 527 kts 95°
2026-04-18 03:02 37.96493 110.31151 33058 ft 527 kts 95°
2026-04-18 03:03 37.95583 110.40362 33064 ft 527 kts 95°
2026-04-18 03:03 37.94661 110.49578 33071 ft 527 kts 95°
2026-04-18 03:04 37.93732 110.58785 33060 ft 527 kts 95°
2026-04-18 03:04 37.92840 110.67996 33073 ft 527 kts 94°
2026-04-18 03:05 37.92067 110.77171 33085 ft 522 kts 96°
2026-04-18 03:05 37.91310 110.86316 33088 ft 523 kts 96°
2026-04-18 03:06 37.90546 110.95462 33086 ft 522 kts 96°
2026-04-18 03:06 37.89774 111.04599 33097 ft 522 kts 96°
2026-04-18 03:07 37.88995 111.13733 33088 ft 521 kts 96°
2026-04-18 03:07 37.88211 111.22853 33102 ft 521 kts 96°
2026-04-18 03:08 37.87418 111.31985 33097 ft 522 kts 96°
2026-04-18 03:08 37.86620 111.41097 33097 ft 521 kts 96°
2026-04-18 03:09 37.85799 111.50203 33111 ft 521 kts 97°
2026-04-18 03:09 37.84839 111.59286 33098 ft 520 kts 98°
2026-04-18 03:10 37.83839 111.68352 33111 ft 520 kts 97°
2026-04-18 03:10 37.82934 111.77430 33111 ft 520 kts 96°
2026-04-18 03:11 37.82085 111.86509 33107 ft 519 kts 96°
2026-04-18 03:11 37.81239 111.95516 33121 ft 520 kts 96°
2026-04-18 03:12 37.80375 112.04592 33111 ft 519 kts 96°
2026-04-18 03:12 37.79506 112.13650 33119 ft 519 kts 96°
2026-04-18 03:13 37.78632 112.22703 33125 ft 519 kts 96°
2026-04-18 03:13 37.77752 112.31750 33115 ft 518 kts 96°
2026-04-18 03:14 37.76905 112.40793 33128 ft 518 kts 96°
2026-04-18 03:14 37.76081 112.49846 33122 ft 518 kts 96°
2026-04-18 03:15 37.75253 112.58888 33121 ft 518 kts 96°
2026-04-18 03:15 37.74361 112.67924 33130 ft 518 kts 96°
2026-04-18 03:16 37.73424 112.76951 33117 ft 518 kts 97°
2026-04-18 03:16 37.72806 112.86000 33094 ft 516 kts 85°
2026-04-18 03:17 37.73344 112.90458 33110 ft 513 kts 73°
2026-04-18 03:17 37.74433 112.94729 33147 ft 511 kts 67°
2026-04-18 03:17 37.77262 113.02945 33127 ft 509 kts 61°
2026-04-18 03:18 37.80399 113.10963 33111 ft 508 kts 60°
2026-04-18 03:18 37.83561 113.18947 33124 ft 508 kts 60°
2026-04-18 03:19 37.86691 113.26963 33117 ft 509 kts 61°
2026-04-18 03:19 37.89783 113.34953 33107 ft 508 kts 61°
2026-04-18 03:20 37.92900 113.42991 33114 ft 509 kts 61°
2026-04-18 03:20 37.96025 113.51042 33103 ft 509 kts 60°
2026-04-18 03:21 37.99143 113.59091 33096 ft 509 kts 60°
2026-04-18 03:21 38.02257 113.67156 33108 ft 509 kts 61°
2026-04-18 03:22 38.04859 113.73928 33095 ft 510 kts 61°
2026-04-18 03:22 38.08462 113.83331 33081 ft 510 kts 61°
2026-04-18 03:23 38.11038 113.90062 33087 ft 510 kts 61°
2026-04-18 03:23 38.14140 113.98185 33081 ft 511 kts 61°
2026-04-18 03:24 38.17236 114.06302 33072 ft 511 kts 61°
2026-04-18 03:24 38.19713 114.14800 33093 ft 515 kts 71°
2026-04-18 03:25 38.21547 114.23627 33069 ft 517 kts 73°
2026-04-18 03:25 38.23275 114.32494 33067 ft 517 kts 73°
2026-04-18 03:26 38.25030 114.41366 33073 ft 518 kts 73°
2026-04-18 03:26 38.26796 114.50256 33059 ft 518 kts 73°
2026-04-18 03:27 38.28551 114.59152 33069 ft 518 kts 73°
2026-04-18 03:27 38.30300 114.68061 33067 ft 519 kts 73°
2026-04-18 03:28 38.32044 114.76972 33059 ft 519 kts 74°
2026-04-18 03:28 38.33781 114.85890 33072 ft 519 kts 74°
2026-04-18 03:29 38.35522 114.94845 33064 ft 524 kts 75°
2026-04-18 03:29 38.37247 115.03801 33061 ft 523 kts 76°
2026-04-18 03:30 38.38987 115.12871 33072 ft 523 kts 76°
2026-04-18 03:30 38.40709 115.21878 33061 ft 523 kts 76°
2026-04-18 03:31 38.42416 115.30842 33067 ft 524 kts 76°
2026-04-18 03:31 38.44131 115.39884 33072 ft 525 kts 76°
2026-04-18 03:32 38.45838 115.48936 33060 ft 524 kts 76°
2026-04-18 03:32 38.47537 115.57986 33073 ft 525 kts 76°
2026-04-18 03:33 38.49531 115.66943 33071 ft 524 kts 69°
2026-04-18 03:33 38.52286 115.75554 33062 ft 524 kts 65°
2026-04-18 03:34 38.55431 115.83953 33068 ft 524 kts 62°
2026-04-18 03:34 38.57084 115.88111 32924 ft 527 kts 62°
2026-04-18 03:34 38.58766 115.92290 32306 ft 527 kts 62°
2026-04-18 03:35 38.60433 115.96427 31659 ft 519 kts 62°
2026-04-18 03:35 38.62066 116.00490 31012 ft 509 kts 62°
2026-04-18 03:35 38.63463 116.04606 30290 ft 502 kts 71°
2026-04-18 03:35 38.64230 116.08923 29638 ft 494 kts 81°
2026-04-18 03:36 38.64620 116.13243 29062 ft 484 kts 85°
2026-04-18 03:36 38.64856 116.17497 28467 ft 476 kts 87°
2026-04-18 03:36 38.64959 116.21652 27890 ft 472 kts 90°
2026-04-18 03:36 38.64967 116.25840 27309 ft 469 kts 91°
2026-04-18 03:37 38.64939 116.30048 26715 ft 465 kts 89°
2026-04-18 03:37 38.65244 116.34081 26128 ft 458 kts 81°
2026-04-18 03:37 38.65770 116.38073 25564 ft 452 kts 79°
2026-04-18 03:37 38.66354 116.42006 24999 ft 447 kts 78°
2026-04-18 03:38 38.67003 116.45874 24445 ft 442 kts 76°
2026-04-18 03:38 38.67738 116.49666 23900 ft 437 kts 75°
2026-04-18 03:38 38.68535 116.53398 23359 ft 434 kts 73°
2026-04-18 03:38 38.69369 116.57106 22821 ft 431 kts 73°
2026-04-18 03:39 38.70213 116.60778 22286 ft 428 kts 72°
2026-04-18 03:39 38.71056 116.64416 21757 ft 425 kts 72°
2026-04-18 03:39 38.71892 116.68030 21230 ft 422 kts 72°
2026-04-18 03:39 38.72723 116.71624 20706 ft 419 kts 72°
2026-04-18 03:40 38.73545 116.75190 20186 ft 416 kts 72°
2026-04-18 03:40 38.74359 116.78731 19669 ft 413 kts 72°
2026-04-18 03:40 38.75166 116.82247 19157 ft 410 kts 72°
2026-04-18 03:40 38.75964 116.85736 18614 ft 407 kts 73°
2026-04-18 03:41 38.76757 116.89228 17860 ft 406 kts 73°
2026-04-18 03:41 38.77545 116.92696 17112 ft 405 kts 73°
2026-04-18 03:41 38.78330 116.96157 16360 ft 404 kts 73°
2026-04-18 03:41 38.79111 116.99601 15609 ft 402 kts 73°
2026-04-18 03:42 38.79850 117.03053 14856 ft 400 kts 74°
2026-04-18 03:42 38.80560 117.06486 14104 ft 398 kts 75°
2026-04-18 03:42 38.81260 117.09915 13351 ft 396 kts 75°
2026-04-18 03:42 38.81953 117.13313 12606 ft 394 kts 75°
2026-04-18 03:43 38.82642 117.16697 11975 ft 390 kts 76°
2026-04-18 03:43 38.83328 117.20033 11416 ft 385 kts 76°
2026-04-18 03:43 38.83998 117.23318 10958 ft 375 kts 76°
2026-04-18 03:43 38.84641 117.26514 10549 ft 365 kts 77°
2026-04-18 03:44 38.85308 117.29623 10081 ft 359 kts 72°
2026-04-18 03:44 38.86547 117.32328 9819 ft 348 kts 50°
2026-04-18 03:44 38.88442 117.34211 9300 ft 346 kts 28°
2026-04-18 03:44 38.90743 117.34996 8823 ft 342 kts
2026-04-18 03:45 38.93054 117.34567 8435 ft 335 kts 341°
2026-04-18 03:45 38.95152 117.33341 8154 ft 326 kts 332°
2026-04-18 03:45 38.97122 117.31967 7862 ft 319 kts 330°
2026-04-18 03:45 38.99036 117.30582 7578 ft 313 kts 330°
2026-04-18 03:46 39.00941 117.29291 7300 ft 307 kts 334°
2026-04-18 03:46 39.02846 117.28090 7024 ft 302 kts 334°
2026-04-18 03:46 39.04717 117.26916 6752 ft 297 kts 333°
2026-04-18 03:46 39.06561 117.25750 6484 ft 293 kts 333°
2026-04-18 03:47 39.08382 117.24595 6217 ft 290 kts 333°
2026-04-18 03:47 39.10156 117.23466 5957 ft 287 kts 333°
2026-04-18 03:47 39.11960 117.22316 5690 ft 284 kts 333°
2026-04-18 03:47 39.13722 117.21190 5427 ft 282 kts 333°
2026-04-18 03:48 39.15446 117.20087 5170 ft 280 kts 334°
2026-04-18 03:48 39.17182 117.18974 4912 ft 278 kts 334°
2026-04-18 03:48 39.18906 117.17871 4658 ft 276 kts 334°
2026-04-18 03:48 39.20628 117.16801 4354 ft 276 kts 336°
2026-04-18 03:49 39.22543 117.16481 3909 ft 281 kts
2026-04-18 03:49 39.24326 117.17382 3658 ft 274 kts 36°
2026-04-18 03:49 39.25507 117.19212 3463 ft 262 kts 66°
2026-04-18 03:49 39.26043 117.21445 3331 ft 255 kts 78°
2026-04-18 03:50 39.26547 117.23639 3060 ft 256 kts 78°
2026-04-18 03:50 39.26552 117.25830 2621 ft 238 kts 109°
2026-04-18 03:50 39.25746 117.27494 2338 ft 207 kts 138°
2026-04-18 03:50 39.24766 117.28701 2180 ft 186 kts 142°
2026-04-18 03:51 39.23781 117.29777 2072 ft 181 kts 144°
2026-04-18 03:51 39.22796 117.30710 1907 ft 175 kts 150°
2026-04-18 03:51 39.21783 117.31498 1693 ft 165 kts 157°
2026-04-18 03:51 39.20793 117.32169 1464 ft 158 kts 160°
2026-04-18 03:52 39.19820 117.32788 1257 ft 154 kts 161°
2026-04-18 03:52 39.18858 117.33374 1052 ft 153 kts 162°
2026-04-18 03:52 39.17893 117.33947 857 ft 153 kts 162°
2026-04-18 03:52 39.16933 117.34529 657 ft 152 kts 160°
2026-04-18 03:53 39.15982 117.35122 456 ft 151 kts 158°
2026-04-18 03:53 39.15035 117.35711 247 ft 151 kts 157°
2026-04-18 03:53 39.14096 117.36284 50 ft 148 kts 154°
2026-04-18 03:53 39.13251 117.36806 24 ft 110 kts 154°
2026-04-18 03:54 39.12853 117.37052 23 ft 42 kts 154°
2026-04-18 03:54 39.12700 117.37146 23 ft 19 kts 155°
2026-04-18 03:54 39.12572 117.37216 23 ft 21 kts 163°
2026-04-18 03:54 39.12434 117.37253 23 ft 13 kts 179°
2026-04-18 03:55 39.12334 117.37252 23 ft 10 kts 181°
2026-04-18 03:55 39.12293 117.37204 23 ft 10 kts 270°
2026-04-18 03:55 39.12350 117.37124 23 ft 16 kts 334°
2026-04-18 03:55 39.12472 117.37049 23 ft 23 kts 334°
2026-04-18 03:56 39.12631 117.36952 23 ft 28 kts 335°
2026-04-18 03:56 39.12781 117.36860 23 ft 18 kts 334°
2026-04-18 03:56 39.12848 117.36811 23 ft 8 kts 302°
2026-04-18 03:56 39.12835 117.36724 23 ft 15 kts 247°
2026-04-18 03:57 39.12726 117.36430 23 ft 20 kts 245°
2026-04-18 03:57 39.12678 117.36301 23 ft 11 kts 241°
2026-04-18 03:57 39.12623 117.36280 23 ft 10 kts 164°
2026-04-18 03:58 39.12555 117.36312 23 ft 9 kts 176°
2026-04-18 03:58 39.12517 117.36265 23 ft 8 kts 261°
2026-04-18 03:58 39.12530 117.36199 23 ft 5 kts 296°
2026-04-18 03:58 39.12543 117.36170 23 ft 0 kts 299°